Winter Springs, FL

1:04 AM EDT on May 04, 2015 (GMT -0400)
Executive | | Change Station
CLOSE
Current Station
Airport
Location: Orlando,
Elevation: 112 ft
Nearby Weather Stations

Elev 112 ft 28.55 °N, 81.33 °W | Updated 11 minutes ago

Clear
Clear
66 °F
Feels Like 66 °F
N
5
Wind Variable Wind from ENE

Today
High -- | Low -- °F
--% Chance of Precip.
Yesterday
High -- | Low -- °F
Precip. -- in
6:41 AM 8:02 PM
Full, 100% visible
Pressure 30.19 in
Visibility 10.0 miles
Clouds Clear
Dew Point 55 °F
Humidity 68%
Rainfall 0.00 in
Snow Depth Not available.
UV 0 out of 12
Pollen 7.20 out of 12
Air Quality Not available.
Flu Activity Local Activity
METAR KORL 040453Z AUTO 06004KT 10SM CLR 19/13 A3018 RMK AO2 SLP223 T01890128 402830156

More Conditions Fewer Conditions

Pressure 30.19 in
Visibility 10.0 miles
Clouds Clear
Dew Point 55 °F
Humidity 68%
Rainfall 0.00 in
Snow Depth Not available.
UV 0 out of 12
Pollen 7.20 out of 12
Air Quality Not available.
Flu Activity Local Activity
METAR KORL 040453Z AUTO 06004KT 10SM CLR 19/13 A3018 RMK AO2 SLP223 T01890128 402830156

More Conditions Fewer Conditions

Nepal has a long way to go to dig out and rebuild from a devastating earthquake. We have teamed up with several charities and organizations to make contributing to the relief effort as easy as possible.
How you can help: Portlight Strategies | Red Cross
Nowcast | as of 9:56 PM EDT on May 3, 2015

Isolated Atlantic showers will move toward the west around 15 mph. A few showers or sprinkles may cross the coast after midnight. Otherwise...skies will be partly cloudy with low temperatures in the low to mid 60s Monday morning over the interior; a little milder along the coast in the upper 60s and lower 70s due to persistent onshore flow. Additional details...including graphics are available online at: http://www.Srh.NOAA.Gov/mlb/blog.Php

×

10-Day Weather Forecast

Almanac

Astronomy

May. 04, 2015 Rise Set
Actual Time
Civil Twilight
Nautical Twilight
Astronomical Twilight
Moon
Length of Visible Light
Length of Day
Tomorrow will be .
, % of the Moon is Illuminated

Today's Extremes

State Highs State Lows

Community

WunderPhotos

Upload Photos

1,818,530 photos uploaded!

WunderBlogs® & News

Nearby

Air Quality

  Air Quality AQ Index Pollutant
Not available.

Snow Depth

Station Depth Elevation

Earthquake Activity

City Distance Mag. Time & Date
Minimum magnitude displayed is 2.5.

Coastal Water Temperatures

Place Temperature

Stations

Nearby Weather Stations

Station Location Temp. Windchill Dew Point Humidity Wind Precip. Elev Updated Type